Regional Weather Roundup
Issued by NWS Raleigh/Durham, NC

Current Version | Previous Version | Text Only | Print | Product List | Glossary On
Versions: 1 2 3 4 5 6 7 8 9 10 11 12 13 14 15 16 17 18 19 20 21 22 23 24 25 26 27 28 29 30 31 32 33 34 35 36 37 38 39 40 41 42 43 44 45 46 47 48 49 50
613
ASUS42 KRAH 282010
RWRRAH
NORTH CAROLINA WEATHER ROUNDUP
NATIONAL WEATHER SERVICE RALEIGH NC
400 PM EDT TUE MAR 28 2017

NOTE: "FAIR" INDICATES FEW OR NO CLOUDS BELOW 12,000 FEET WITH NO
SIGNIFICANT WEATHER AND/OR OBSTRUCTIONS TO VISIBILITY.

NCZ001-053-055-056-065-067-282100-
WESTERN NORTH CAROLINA

CITY           SKY/WX    TMP DP  RH WIND       PRES   REMARKS
ASHEVILLE      MOSUNNY   70  49  47 N14G20    29.96F
JEFFERSON      CLOUDY    56  48  75 NW8       29.99R
MORGANTON      SUNNY     74  44  33 W15G23    29.97F
HICKORY        SUNNY     75  48  38 NW13G23   29.91F
RUTHERFORDTON  CLOUDY    75  51  43 CALM      29.92S
MOUNT AIRY     MOSUNNY   72  55  56 NW8       29.93S
BOONE          CLOUDY    55  48  79 W7        30.01S
$$

NCZ021-022-025-041-071-084-088-282100-
CENTRAL NORTH CAROLINA

CITY           SKY/WX    TMP DP  RH WIND       PRES   REMARKS
CHARLOTTE      PTSUNNY   78  52  40 N8        29.89F
GREENSBORO     PTSUNNY   73  54  51 W15       29.88F
WINSTON-SALEM  MOSUNNY   76  45  33 NW13G22   29.90S
RALEIGH-DURHAM MOSUNNY   73  61  65 W5        29.87F
FORT BRAGG     MOSUNNY   80  57  45 SW9G18    29.84F
FAYETTEVILLE   PTSUNNY   79  58  48 W7        29.85F
BURLINGTON     SUNNY     80  52  37 W16       29.86F
LAURINBURG     MOSUNNY   80  59  48 SW12      29.87F
$$

NCZ011-015-027-028-043-044-047-080-103-282100-
NORTHEASTERN NORTH CAROLINA

CITY           SKY/WX    TMP DP  RH WIND       PRES   REMARKS
ROCKY MT-WILSO MOSUNNY   76  60  57 SW9       29.86F
GREENVILLE     MOSUNNY   75  63  64 W7        29.89F
WASHINGTON     CLOUDY    72  62  71 SW8       29.88S
ELIZABETH CITY MOSUNNY   69  59  70 SW16      29.86F
MANTEO         CLOUDY    65  60  86 SW9       29.88F
CAPE HATTERAS  CLOUDY    66  59  78 NW6       29.92F
$$

NCZ078-087-090-091-093-098-101-282100-
SOUTHEASTERN NORTH CAROLINA

CITY           SKY/WX    TMP DP  RH WIND       PRES   REMARKS
LUMBERTON      SUNNY     81  59  47 W15       29.86F
GOLDSBORO      MOSUNNY   78  63  59 W10       29.84F
KINSTON        MOSUNNY   75  63  64 S6        29.88F
KENANSVILLE    MOSUNNY   79  61  53 W8        29.86F
NEW BERN       CLOUDY    73  63  70 S13       29.88F
CHERRY POINT   NOT AVBL
BEAUFORT       CLOUDY    70  63  78 S14       29.89F
JACKSONVILLE   MOSUNNY   75  63  66 S12       29.86F
WILMINGTON     MOSUNNY   80  59  48 SW15G25   29.87F
$$





USA.gov is the U.S. government's official web portal to all federal, state and local government web resources and services.